owner,sensor,date,latitude,longitude,vertical_datum,wind_speed,wind_to_direction,wind_speed_of_gust,qcFlag 
TCOON,ioos:station:TCOON:005:1,2017-09-01T00:00:00Z,27.6346,-97.2370,0.0,5.7,55.0,7.3,'11111222,11111222,11111222' 
TCOON,ioos:station:TCOON:005:1,2017-09-01T00:06:00Z,27.6346,-97.2370,0.0,5.8,52.0,7.0,'11111222,11111222,11111222' 
TCOON,ioos:station:TCOON:005:1,2017-09-01T00:12:00Z,27.6346,-97.2370,0.0,5.3,60.0,6.9,'11111222,11111222,11111222' 
TCOON,ioos:station:TCOON:005:1,2017-09-01T00:18:00Z,27.6346,-97.2370,0.0,5.3,60.0,6.9,'1111122,1111122,1111122' 
TCOON,ioos:station:TCOON:005:1,2017-09-01T00:24:00Z,27.6346,-97.2370,0.0,5.1,67.0,6.6,'11111222,11111222,11111222' 
TCOON,ioos:station:TCOON:005:1,2017-09-01T00:30:00Z,27.6346,-97.2370,0.0,5.1,71.0,6.3,'11111222,11111222,11111222' 
TCOON,ioos:station:TCOON:005:1,2017-09-01T00:36:00Z,27.6346,-97.2370,0.0,5.9,70.0,6.9,'11111222,11111222,11111222' 
TCOON,ioos:station:TCOON:005:1,2017-09-01T00:42:00Z,27.6346,-97.2370,0.0,5.5,70.0,7.2,'11111222,11111222,11111222' 
TCOON,ioos:station:TCOON:005:1,2017-09-01T00:48:00Z,27.6346,-97.2370,0.0,4.3,81.0,6.5,'11111222,11111222,11111222' 
TCOON,ioos:station:TCOON:005:1,2017-09-01T00:54:00Z,27.6346,-97.2370,0.0,4.6,76.0,5.9,'11111222,11111222,11111222' 
TCOON,ioos:station:TCOON:005:1,2017-09-01T01:00:00Z,27.6346,-97.2370,0.0,5.9,83.0,7.0,'11111222,11111222,11111222' 
TCOON,ioos:station:TCOON:005:1,2017-09-01T01:06:00Z,27.6346,-97.2370,0.0,5.0,83.0,6.6,'11111222,11111222,11111222' 
TCOON,ioos:station:TCOON:005:1,2017-09-01T01:12:00Z,27.6346,-97.2370,0.0,4.1,88.0,6.3,'11111222,11111222,11111222' 
TCOON,ioos:station:TCOON:005:1,2017-09-01T01:18:00Z,27.6346,-97.2370,0.0,4.1,88.0,6.3,'1111122,1111122,1111122' 
TCOON,ioos:station:TCOON:005:1,2017-09-01T01:24:00Z,27.6346,-97.2370,0.0,3.8,84.0,5.8,'11111222,11111222,11111222' 
TCOON,ioos:station:TCOON:005:1,2017-09-01T01:30:00Z,27.6346,-97.2370,0.0,3.7,78.0,5.7,'11111222,11111222,11111222' 
TCOON,ioos:station:TCOON:005:1,2017-09-01T01:36:00Z,27.6346,-97.2370,0.0,3.9,87.0,4.6,'11111222,11111222,11111222' 
TCOON,ioos:station:TCOON:005:1,2017-09-01T01:42:00Z,27.6346,-97.2370,0.0,4.8,77.0,5.8,'11111222,11111222,11111222' 
TCOON,ioos:station:TCOON:005:1,2017-09-01T01:48:00Z,27.6346,-97.2370,0.0,3.5,76.0,5.8,'11111222,11111222,11111222' 
TCOON,ioos:station:TCOON:005:1,2017-09-01T01:54:00Z,27.6346,-97.2370,0.0,3.9,86.0,5.6,'11111222,11111222,11111222' 
TCOON,ioos:station:TCOON:005:1,2017-09-01T02:00:00Z,27.6346,-97.2370,0.0,3.4,79.0,4.6,'11111222,11111222,11111222' 
TCOON,ioos:station:TCOON:005:1,2017-09-01T02:06:00Z,27.6346,-97.2370,0.0,4.1,70.0,5.3,'11111222,11111222,11111222' 
TCOON,ioos:station:TCOON:005:1,2017-09-01T02:12:00Z,27.6346,-97.2370,0.0,3.6,67.0,5.0,'11111222,11111222,11111222' 
TCOON,ioos:station:TCOON:005:1,2017-09-01T02:18:00Z,27.6346,-97.2370,0.0,3.6,67.0,5.0,'1111122,1111122,1111122' 
TCOON,ioos:station:TCOON:005:1,2017-09-01T02:24:00Z,27.6346,-97.2370,0.0,3.6,61.0,4.9,'11111222,11111222,11111222' 
TCOON,ioos:station:TCOON:005:1,2017-09-01T02:30:00Z,27.6346,-97.2370,0.0,4.0,62.0,4.9,'11111222,11111222,11111222' 
TCOON,ioos:station:TCOON:005:1,2017-09-01T02:36:00Z,27.6346,-97.2370,0.0,3.5,55.0,4.4,'11111222,11111222,11111222' 
TCOON,ioos:station:TCOON:005:1,2017-09-01T02:42:00Z,27.6346,-97.2370,0.0,4.1,56.0,4.7,'11111222,11111222,11111222' 
TCOON,ioos:station:TCOON:005:1,2017-09-01T02:48:00Z,27.6346,-97.2370,0.0,3.7,58.0,4.5,'11111222,11111222,11111222' 
TCOON,ioos:station:TCOON:005:1,2017-09-01T02:54:00Z,27.6346,-97.2370,0.0,4.0,57.0,4.8,'11111222,11111222,11111222' 
TCOON,ioos:station:TCOON:005:1,2017-09-01T03:00:00Z,27.6346,-97.2370,0.0,3.7,55.0,4.5,'11111222,11111222,11111222' 
TCOON,ioos:station:TCOON:005:1,2017-09-01T03:06:00Z,27.6346,-97.2370,0.0,3.7,49.0,4.2,'11111222,11111222,11111222' 
TCOON,ioos:station:TCOON:005:1,2017-09-01T03:12:00Z,27.6346,-97.2370,0.0,3.8,51.0,4.8,'11111222,11111222,11111222' 
TCOON,ioos:station:TCOON:005:1,2017-09-01T03:18:00Z,27.6346,-97.2370,0.0,3.8,51.0,4.8,'1111122,1111122,1111122' 
TCOON,ioos:station:TCOON:005:1,2017-09-01T03:24:00Z,27.6346,-97.2370,0.0,3.6,55.0,4.4,'11111222,11111222,11111222' 
TCOON,ioos:station:TCOON:005:1,2017-09-01T03:30:00Z,27.6346,-97.2370,0.0,3.6,58.0,4.0,'11111222,11111222,11111222' 
TCOON,ioos:station:TCOON:005:1,2017-09-01T03:36:00Z,27.6346,-97.2370,0.0,3.4,56.0,4.0,'11111222,11111222,11111222' 
TCOON,ioos:station:TCOON:005:1,2017-09-01T03:42:00Z,27.6346,-97.2370,0.0,3.6,63.0,4.6,'11111222,11111222,11111222' 
TCOON,ioos:station:TCOON:005:1,2017-09-01T03:48:00Z,27.6346,-97.2370,0.0,3.3,68.0,4.8,'11111222,11111222,11111222' 
TCOON,ioos:station:TCOON:005:1,2017-09-01T03:54:00Z,27.6346,-97.2370,0.0,3.5,64.0,4.2,'11111222,11111222,11111222' 
TCOON,ioos:station:TCOON:005:1,2017-09-01T04:00:00Z,27.6346,-97.2370,0.0,3.3,71.0,4.2,'11111222,11111222,11111222' 
TCOON,ioos:station:TCOON:005:1,2017-09-01T04:06:00Z,27.6346,-97.2370,0.0,3.0,67.0,4.0,'11111222,11111222,11111222' 
TCOON,ioos:station:TCOON:005:1,2017-09-01T04:12:00Z,27.6346,-97.2370,0.0,3.3,68.0,4.4,'11111222,11111222,11111222' 
TCOON,ioos:station:TCOON:005:1,2017-09-01T04:18:00Z,27.6346,-97.2370,0.0,3.3,68.0,4.4,'1111122,1111122,1111122' 
TCOON,ioos:station:TCOON:005:1,2017-09-01T04:24:00Z,27.6346,-97.2370,0.0,2.8,70.0,3.5,'11111222,11111222,11111222' 
TCOON,ioos:station:TCOON:005:1,2017-09-01T04:30:00Z,27.6346,-97.2370,0.0,3.5,73.0,4.3,'11111222,11111222,11111222' 
TCOON,ioos:station:TCOON:005:1,2017-09-01T04:36:00Z,27.6346,-97.2370,0.0,2.9,72.0,3.6,'11111222,11111222,11111222' 
TCOON,ioos:station:TCOON:005:1,2017-09-01T04:42:00Z,27.6346,-97.2370,0.0,3.0,66.0,3.5,'11111222,11111222,11111222' 
TCOON,ioos:station:TCOON:005:1,2017-09-01T04:48:00Z,27.6346,-97.2370,0.0,2.9,68.0,4.3,'11111222,11111222,11111222' 
TCOON,ioos:station:TCOON:005:1,2017-09-01T04:54:00Z,27.6346,-97.2370,0.0,2.5,73.0,4.1,'11111222,11111222,11111222' 
TCOON,ioos:station:TCOON:005:1,2017-09-01T05:00:00Z,27.6346,-97.2370,0.0,3.0,72.0,3.8,'11111222,11111222,11111222' 
TCOON,ioos:station:TCOON:005:1,2017-09-01T05:06:00Z,27.6346,-97.2370,0.0,2.5,71.0,3.9,'11111222,11111222,11111222' 
TCOON,ioos:station:TCOON:005:1,2017-09-01T05:12:00Z,27.6346,-97.2370,0.0,2.9,66.0,3.6,'11111222,11111222,11111222' 
TCOON,ioos:station:TCOON:005:1,2017-09-01T05:18:00Z,27.6346,-97.2370,0.0,2.9,66.0,3.6,'1111122,1111122,1111122' 
TCOON,ioos:station:TCOON:005:1,2017-09-01T05:24:00Z,27.6346,-97.2370,0.0,2.1,70.0,2.8,'11111222,11111222,11111222' 
TCOON,ioos:station:TCOON:005:1,2017-09-01T05:30:00Z,27.6346,-97.2370,0.0,2.2,79.0,2.9,'11111222,11111222,11111222' 
TCOON,ioos:station:TCOON:005:1,2017-09-01T05:36:00Z,27.6346,-97.2370,0.0,2.0,61.0,3.2,'11111222,11111222,11111222' 
TCOON,ioos:station:TCOON:005:1,2017-09-01T05:42:00Z,27.6346,-97.2370,0.0,2.4,69.0,3.3,'11111222,11111222,11111222' 
TCOON,ioos:station:TCOON:005:1,2017-09-01T05:48:00Z,27.6346,-97.2370,0.0,2.2,70.0,2.6,'11111222,11111222,11111222' 
TCOON,ioos:station:TCOON:005:1,2017-09-01T05:54:00Z,27.6346,-97.2370,0.0,1.9,82.0,2.7,'11111222,11111222,11111222' 
TCOON,ioos:station:TCOON:005:1,2017-09-01T06:00:00Z,27.6346,-97.2370,0.0,2.1,73.0,2.7,'11111222,11111222,11111222' 
TCOON,ioos:station:TCOON:005:1,2017-09-01T06:06:00Z,27.6346,-97.2370,0.0,1.4,83.0,2.1,'11111222,11111222,11111222' 
TCOON,ioos:station:TCOON:005:1,2017-09-01T06:12:00Z,27.6346,-97.2370,0.0,1.4,84.0,2.0,'11111222,11111222,11111222' 
TCOON,ioos:station:TCOON:005:1,2017-09-01T06:18:00Z,27.6346,-97.2370,0.0,1.4,84.0,2.0,'1111122,1111122,1111122' 
TCOON,ioos:station:TCOON:005:1,2017-09-01T06:24:00Z,27.6346,-97.2370,0.0,1.9,80.0,2.4,'11111222,11111222,11111222' 
TCOON,ioos:station:TCOON:005:1,2017-09-01T06:30:00Z,27.6346,-97.2370,0.0,1.9,71.0,3.0,'11111222,11111222,11111222' 
TCOON,ioos:station:TCOON:005:1,2017-09-01T06:36:00Z,27.6346,-97.2370,0.0,1.9,80.0,3.0,'11111222,11111222,11111222' 
TCOON,ioos:station:TCOON:005:1,2017-09-01T06:42:00Z,27.6346,-97.2370,0.0,1.9,71.0,2.6,'11111222,11111222,11111222' 
TCOON,ioos:station:TCOON:005:1,2017-09-01T06:48:00Z,27.6346,-97.2370,0.0,1.5,73.0,2.4,'11111222,11111222,11111222' 
TCOON,ioos:station:TCOON:005:1,2017-09-01T06:54:00Z,27.6346,-97.2370,0.0,1.8,77.0,2.1,'11111222,11111222,11111222' 
TCOON,ioos:station:TCOON:005:1,2017-09-01T07:00:00Z,27.6346,-97.2370,0.0,1.9,87.0,2.6,'11111222,11111222,11111222' 
TCOON,ioos:station:TCOON:005:1,2017-09-01T07:06:00Z,27.6346,-97.2370,0.0,2.0,88.0,2.5,'11111222,11111222,11111222' 
TCOON,ioos:station:TCOON:005:1,2017-09-01T07:12:00Z,27.6346,-97.2370,0.0,1.9,93.0,2.8,'11111222,11111222,11111222' 
TCOON,ioos:station:TCOON:005:1,2017-09-01T07:18:00Z,27.6346,-97.2370,0.0,1.9,93.0,2.8,'1111122,1111122,1111122' 
TCOON,ioos:station:TCOON:005:1,2017-09-01T07:24:00Z,27.6346,-97.2370,0.0,1.9,92.0,2.6,'11111222,11111222,11111222' 
TCOON,ioos:station:TCOON:005:1,2017-09-01T07:30:00Z,27.6346,-97.2370,0.0,1.7,96.0,2.6,'11111222,11111222,11111222' 
TCOON,ioos:station:TCOON:005:1,2017-09-01T07:36:00Z,27.6346,-97.2370,0.0,2.1,92.0,2.6,'11111222,11111222,11111222' 
TCOON,ioos:station:TCOON:005:1,2017-09-01T07:42:00Z,27.6346,-97.2370,0.0,2.2,90.0,2.9,'11111222,11111222,11111222' 
TCOON,ioos:station:TCOON:005:1,2017-09-01T07:48:00Z,27.6346,-97.2370,0.0,2.1,91.0,2.8,'11111222,11111222,11111222' 
TCOON,ioos:station:TCOON:005:1,2017-09-01T07:54:00Z,27.6346,-97.2370,0.0,2.3,88.0,2.9,'11111222,11111222,11111222' 
TCOON,ioos:station:TCOON:005:1,2017-09-01T08:00:00Z,27.6346,-97.2370,0.0,1.9,93.0,2.7,'11111222,11111222,11111222' 
TCOON,ioos:station:TCOON:005:1,2017-09-01T08:06:00Z,27.6346,-97.2370,0.0,1.9,91.0,2.6,'11111222,11111222,11111222' 
TCOON,ioos:station:TCOON:005:1,2017-09-01T08:12:00Z,27.6346,-97.2370,0.0,2.3,85.0,2.9,'11111222,11111222,11111222' 
TCOON,ioos:station:TCOON:005:1,2017-09-01T08:18:00Z,27.6346,-97.2370,0.0,2.3,85.0,2.9,'1111122,1111122,1111122' 
TCOON,ioos:station:TCOON:005:1,2017-09-01T08:24:00Z,27.6346,-97.2370,0.0,2.0,92.0,2.7,'11111222,11111222,11111222' 
TCOON,ioos:station:TCOON:005:1,2017-09-01T08:30:00Z,27.6346,-97.2370,0.0,2.0,91.0,2.7,'11111222,11111222,11111222' 
TCOON,ioos:station:TCOON:005:1,2017-09-01T08:36:00Z,27.6346,-97.2370,0.0,2.1,88.0,2.7,'11111222,11111222,11111222' 
TCOON,ioos:station:TCOON:005:1,2017-09-01T08:42:00Z,27.6346,-97.2370,0.0,1.6,95.0,2.5,'11111222,11111222,11111222' 
TCOON,ioos:station:TCOON:005:1,2017-09-01T08:48:00Z,27.6346,-97.2370,0.0,1.4,97.0,2.7,'11111222,11111222,11111222' 
TCOON,ioos:station:TCOON:005:1,2017-09-01T08:54:00Z,27.6346,-97.2370,0.0,1.6,94.0,2.2,'11111222,11111222,11111222' 
TCOON,ioos:station:TCOON:005:1,2017-09-01T09:00:00Z,27.6346,-97.2370,0.0,2.1,89.0,2.6,'11111222,11111222,11111222' 
TCOON,ioos:station:TCOON:005:1,2017-09-01T09:06:00Z,27.6346,-97.2370,0.0,1.5,95.0,2.5,'11111222,11111222,11111222' 
TCOON,ioos:station:TCOON:005:1,2017-09-01T09:12:00Z,27.6346,-97.2370,0.0,1.8,93.0,2.5,'11111222,11111222,11111222' 
TCOON,ioos:station:TCOON:005:1,2017-09-01T09:18:00Z,27.6346,-97.2370,0.0,1.8,93.0,2.5,'1111122,1111122,1111122' 
TCOON,ioos:station:TCOON:005:1,2017-09-01T09:24:00Z,27.6346,-97.2370,0.0,1.8,91.0,2.4,'11111222,11111222,11111222' 
TCOON,ioos:station:TCOON:005:1,2017-09-01T09:30:00Z,27.6346,-97.2370,0.0,1.7,97.0,2.4,'11111222,11111222,11111222' 
TCOON,ioos:station:TCOON:005:1,2017-09-01T09:36:00Z,27.6346,-97.2370,0.0,1.7,98.0,2.4,'11111222,11111222,11111222' 
TCOON,ioos:station:TCOON:005:1,2017-09-01T09:42:00Z,27.6346,-97.2370,0.0,1.9,97.0,2.9,'11111222,11111222,11111222' 
TCOON,ioos:station:TCOON:005:1,2017-09-01T09:48:00Z,27.6346,-97.2370,0.0,2.0,96.0,2.6,'11111222,11111222,11111222' 
TCOON,ioos:station:TCOON:005:1,2017-09-01T09:54:00Z,27.6346,-97.2370,0.0,1.9,95.0,2.6,'11111222,11111222,11111222' 
TCOON,ioos:station:TCOON:005:1,2017-09-01T10:00:00Z,27.6346,-97.2370,0.0,1.8,96.0,2.3,'11111222,11111222,11111222' 
TCOON,ioos:station:TCOON:005:1,2017-09-01T10:06:00Z,27.6346,-97.2370,0.0,2.0,91.0,2.7,'11111222,11111222,11111222' 
TCOON,ioos:station:TCOON:005:1,2017-09-01T10:12:00Z,27.6346,-97.2370,0.0,1.7,95.0,2.9,'11111222,11111222,11111222' 
TCOON,ioos:station:TCOON:005:1,2017-09-01T10:18:00Z,27.6346,-97.2370,0.0,1.7,95.0,2.9,'1111122,1111122,1111122' 
TCOON,ioos:station:TCOON:005:1,2017-09-01T10:24:00Z,27.6346,-97.2370,0.0,1.5,95.0,2.3,'11111222,11111222,11111222' 
TCOON,ioos:station:TCOON:005:1,2017-09-01T10:30:00Z,27.6346,-97.2370,0.0,1.5,89.0,1.9,'11111222,11111222,11111222' 
TCOON,ioos:station:TCOON:005:1,2017-09-01T10:36:00Z,27.6346,-97.2370,0.0,2.0,87.0,2.6,'11111222,11111222,11111222' 
TCOON,ioos:station:TCOON:005:1,2017-09-01T10:42:00Z,27.6346,-97.2370,0.0,1.7,85.0,2.5,'11111222,11111222,11111222' 
TCOON,ioos:station:TCOON:005:1,2017-09-01T10:48:00Z,27.6346,-97.2370,0.0,1.4,74.0,2.0,'11111222,11111222,11111222' 
TCOON,ioos:station:TCOON:005:1,2017-09-01T10:54:00Z,27.6346,-97.2370,0.0,1.6,83.0,2.5,'11111222,11111222,11111222' 
TCOON,ioos:station:TCOON:005:1,2017-09-01T11:00:00Z,27.6346,-97.2370,0.0,1.3,84.0,2.5,'11111222,11111222,11111222' 
TCOON,ioos:station:TCOON:005:1,2017-09-01T11:06:00Z,27.6346,-97.2370,0.0,1.4,83.0,1.8,'11111222,11111222,11111222' 
TCOON,ioos:station:TCOON:005:1,2017-09-01T11:12:00Z,27.6346,-97.2370,0.0,1.0,64.0,1.4,'11111222,11111222,11111222' 
TCOON,ioos:station:TCOON:005:1,2017-09-01T11:18:00Z,27.6346,-97.2370,0.0,1.0,64.0,1.4,'1111122,1111122,1111122' 
TCOON,ioos:station:TCOON:005:1,2017-09-01T11:24:00Z,27.6346,-97.2370,0.0,1.0,21.0,1.2,'11111222,11111222,11111222' 
TCOON,ioos:station:TCOON:005:1,2017-09-01T11:30:00Z,27.6346,-97.2370,0.0,1.2,47.0,1.6,'11111222,11111222,11111222' 
TCOON,ioos:station:TCOON:005:1,2017-09-01T11:36:00Z,27.6346,-97.2370,0.0,1.2,46.0,1.4,'11111222,11111222,11111222' 
TCOON,ioos:station:TCOON:005:1,2017-09-01T11:42:00Z,27.6346,-97.2370,0.0,1.2,33.0,1.5,'11111222,11111222,11111222' 
TCOON,ioos:station:TCOON:005:1,2017-09-01T11:48:00Z,27.6346,-97.2370,0.0,1.3,53.0,1.5,'11111222,11111222,11111222' 
TCOON,ioos:station:TCOON:005:1,2017-09-01T11:54:00Z,27.6346,-97.2370,0.0,1.3,53.0,1.7,'11111222,11111222,11111222' 
TCOON,ioos:station:TCOON:005:1,2017-09-01T12:00:00Z,27.6346,-97.2370,0.0,1.6,56.0,1.9,'11111222,11111222,11111222' 
TCOON,ioos:station:TCOON:005:1,2017-09-01T12:06:00Z,27.6346,-97.2370,0.0,1.6,49.0,2.0,'11111222,11111222,11111222' 
TCOON,ioos:station:TCOON:005:1,2017-09-01T12:12:00Z,27.6346,-97.2370,0.0,1.5,54.0,1.9,'11111222,11111222,11111222' 
TCOON,ioos:station:TCOON:005:1,2017-09-01T12:18:00Z,27.6346,-97.2370,0.0,1.5,54.0,1.9,'1111122,1111122,1111122' 
TCOON,ioos:station:TCOON:005:1,2017-09-01T12:24:00Z,27.6346,-97.2370,0.0,1.3,53.0,1.6,'11111222,11111222,11111222' 
TCOON,ioos:station:TCOON:005:1,2017-09-01T12:30:00Z,27.6346,-97.2370,0.0,1.4,49.0,1.6,'11111222,11111222,11111222' 
TCOON,ioos:station:TCOON:005:1,2017-09-01T12:36:00Z,27.6346,-97.2370,0.0,1.2,49.0,1.5,'11111222,11111222,11111222' 
TCOON,ioos:station:TCOON:005:1,2017-09-01T12:42:00Z,27.6346,-97.2370,0.0,1.3,47.0,1.5,'11111222,11111222,11111222' 
TCOON,ioos:station:TCOON:005:1,2017-09-01T12:48:00Z,27.6346,-97.2370,0.0,1.4,52.0,1.7,'11111222,11111222,11111222' 
TCOON,ioos:station:TCOON:005:1,2017-09-01T12:54:00Z,27.6346,-97.2370,0.0,1.8,51.0,2.0,'11111222,11111222,11111222' 
TCOON,ioos:station:TCOON:005:1,2017-09-01T13:00:00Z,27.6346,-97.2370,0.0,1.9,51.0,2.4,'11111222,11111222,11111222' 
TCOON,ioos:station:TCOON:005:1,2017-09-01T13:06:00Z,27.6346,-97.2370,0.0,1.8,54.0,2.4,'11111222,11111222,11111222' 
TCOON,ioos:station:TCOON:005:1,2017-09-01T13:12:00Z,27.6346,-97.2370,0.0,1.9,58.0,2.3,'11111222,11111222,11111222' 
TCOON,ioos:station:TCOON:005:1,2017-09-01T13:18:00Z,27.6346,-97.2370,0.0,1.9,58.0,2.3,'1111122,1111122,1111122' 
TCOON,ioos:station:TCOON:005:1,2017-09-01T13:24:00Z,27.6346,-97.2370,0.0,2.1,67.0,2.8,'11111222,11111222,11111222' 
TCOON,ioos:station:TCOON:005:1,2017-09-01T13:30:00Z,27.6346,-97.2370,0.0,1.8,84.0,3.0,'11111222,11111222,11111222' 
TCOON,ioos:station:TCOON:005:1,2017-09-01T13:36:00Z,27.6346,-97.2370,0.0,2.6,70.0,3.3,'11111222,11111222,11111222' 
TCOON,ioos:station:TCOON:005:1,2017-09-01T13:42:00Z,27.6346,-97.2370,0.0,3.0,71.0,3.6,'11111222,11111222,11111222' 
TCOON,ioos:station:TCOON:005:1,2017-09-01T13:48:00Z,27.6346,-97.2370,0.0,2.7,87.0,3.7,'11111222,11111222,11111222' 
TCOON,ioos:station:TCOON:005:1,2017-09-01T13:54:00Z,27.6346,-97.2370,0.0,2.8,83.0,3.9,'11111222,11111222,11111222' 
TCOON,ioos:station:TCOON:005:1,2017-09-01T14:00:00Z,27.6346,-97.2370,0.0,2.9,83.0,3.8,'11111222,11111222,11111222' 
TCOON,ioos:station:TCOON:005:1,2017-09-01T14:06:00Z,27.6346,-97.2370,0.0,3.1,79.0,4.1,'11111222,11111222,11111222' 
TCOON,ioos:station:TCOON:005:1,2017-09-01T14:12:00Z,27.6346,-97.2370,0.0,2.7,82.0,4.1,'11111222,11111222,11111222' 
TCOON,ioos:station:TCOON:005:1,2017-09-01T14:18:00Z,27.6346,-97.2370,0.0,2.7,82.0,4.1,'1111122,1111122,1111122' 
TCOON,ioos:station:TCOON:005:1,2017-09-01T14:24:00Z,27.6346,-97.2370,0.0,3.2,72.0,4.1,'11111222,11111222,11111222' 
TCOON,ioos:station:TCOON:005:1,2017-09-01T14:30:00Z,27.6346,-97.2370,0.0,3.0,80.0,4.0,'11111222,11111222,11111222' 
TCOON,ioos:station:TCOON:005:1,2017-09-01T14:36:00Z,27.6346,-97.2370,0.0,2.7,77.0,3.7,'11111222,11111222,11111222' 
TCOON,ioos:station:TCOON:005:1,2017-09-01T14:42:00Z,27.6346,-97.2370,0.0,3.8,71.0,5.0,'11111222,11111222,11111222' 
TCOON,ioos:station:TCOON:005:1,2017-09-01T14:48:00Z,27.6346,-97.2370,0.0,3.4,68.0,4.9,'11111222,11111222,11111222' 
TCOON,ioos:station:TCOON:005:1,2017-09-01T14:54:00Z,27.6346,-97.2370,0.0,3.4,73.0,4.6,'11111222,11111222,11111222' 
TCOON,ioos:station:TCOON:005:1,2017-09-01T15:00:00Z,27.6346,-97.2370,0.0,4.0,59.0,5.0,'11111222,11111222,11111222' 
TCOON,ioos:station:TCOON:005:1,2017-09-01T15:06:00Z,27.6346,-97.2370,0.0,4.4,45.0,5.5,'11111222,11111222,11111222' 
TCOON,ioos:station:TCOON:005:1,2017-09-01T15:12:00Z,27.6346,-97.2370,0.0,4.4,43.0,5.6,'11111222,11111222,11111222' 
TCOON,ioos:station:TCOON:005:1,2017-09-01T15:18:00Z,27.6346,-97.2370,0.0,4.4,43.0,5.6,'1111122,1111122,1111122' 
TCOON,ioos:station:TCOON:005:1,2017-09-01T15:24:00Z,27.6346,-97.2370,0.0,3.7,54.0,5.4,'11111222,11111222,11111222' 
TCOON,ioos:station:TCOON:005:1,2017-09-01T15:30:00Z,27.6346,-97.2370,0.0,4.6,50.0,5.8,'11111222,11111222,11111222' 
TCOON,ioos:station:TCOON:005:1,2017-09-01T15:36:00Z,27.6346,-97.2370,0.0,4.9,45.0,5.8,'11111222,11111222,11111222' 
TCOON,ioos:station:TCOON:005:1,2017-09-01T15:42:00Z,27.6346,-97.2370,0.0,4.1,45.0,5.4,'11111222,11111222,11111222' 
TCOON,ioos:station:TCOON:005:1,2017-09-01T15:48:00Z,27.6346,-97.2370,0.0,4.7,46.0,5.5,'11111222,11111222,11111222' 
TCOON,ioos:station:TCOON:005:1,2017-09-01T15:54:00Z,27.6346,-97.2370,0.0,4.1,47.0,5.1,'11111222,11111222,11111222' 
TCOON,ioos:station:TCOON:005:1,2017-09-01T16:00:00Z,27.6346,-97.2370,0.0,3.6,47.0,5.6,'11111222,11111222,11111222' 
TCOON,ioos:station:TCOON:005:1,2017-09-01T16:06:00Z,27.6346,-97.2370,0.0,3.9,42.0,4.8,'11111222,11111222,11111222' 
TCOON,ioos:station:TCOON:005:1,2017-09-01T16:12:00Z,27.6346,-97.2370,0.0,4.6,30.0,5.6,'11111222,11111222,11111222' 
TCOON,ioos:station:TCOON:005:1,2017-09-01T16:18:00Z,27.6346,-97.2370,0.0,4.6,30.0,5.6,'1111122,1111122,1111122' 
TCOON,ioos:station:TCOON:005:1,2017-09-01T16:24:00Z,27.6346,-97.2370,0.0,4.3,31.0,5.1,'11111222,11111222,11111222' 
TCOON,ioos:station:TCOON:005:1,2017-09-01T16:30:00Z,27.6346,-97.2370,0.0,3.6,42.0,4.4,'11111222,11111222,11111222' 
TCOON,ioos:station:TCOON:005:1,2017-09-01T16:36:00Z,27.6346,-97.2370,0.0,4.4,38.0,6.2,'11111222,11111222,11111222' 
TCOON,ioos:station:TCOON:005:1,2017-09-01T16:42:00Z,27.6346,-97.2370,0.0,3.8,56.0,5.4,'11111222,11111222,11111222' 
TCOON,ioos:station:TCOON:005:1,2017-09-01T16:48:00Z,27.6346,-97.2370,0.0,4.1,32.0,5.3,'11111222,11111222,11111222' 
TCOON,ioos:station:TCOON:005:1,2017-09-01T16:54:00Z,27.6346,-97.2370,0.0,4.5,38.0,5.4,'11111222,11111222,11111222' 
TCOON,ioos:station:TCOON:005:1,2017-09-01T17:00:00Z,27.6346,-97.2370,0.0,4.1,39.0,4.6,'11111222,11111222,11111222' 
TCOON,ioos:station:TCOON:005:1,2017-09-01T17:06:00Z,27.6346,-97.2370,0.0,4.3,36.0,5.4,'11111222,11111222,11111222' 
TCOON,ioos:station:TCOON:005:1,2017-09-01T17:12:00Z,27.6346,-97.2370,0.0,4.1,33.0,5.1,'11111222,11111222,11111222' 
TCOON,ioos:station:TCOON:005:1,2017-09-01T17:18:00Z,27.6346,-97.2370,0.0,4.1,33.0,5.1,'1111122,1111122,1111122' 
TCOON,ioos:station:TCOON:005:1,2017-09-01T17:24:00Z,27.6346,-97.2370,0.0,4.7,33.0,5.7,'11111222,11111222,11111222' 
TCOON,ioos:station:TCOON:005:1,2017-09-01T17:30:00Z,27.6346,-97.2370,0.0,4.3,30.0,5.4,'11111222,11111222,11111222' 
TCOON,ioos:station:TCOON:005:1,2017-09-01T17:36:00Z,27.6346,-97.2370,0.0,4.7,25.0,5.9,'11111222,11111222,11111222' 
TCOON,ioos:station:TCOON:005:1,2017-09-01T17:42:00Z,27.6346,-97.2370,0.0,4.9,26.0,5.6,'11111222,11111222,11111222' 
TCOON,ioos:station:TCOON:005:1,2017-09-01T17:48:00Z,27.6346,-97.2370,0.0,4.8,29.0,5.8,'11111222,11111222,11111222' 
TCOON,ioos:station:TCOON:005:1,2017-09-01T17:54:00Z,27.6346,-97.2370,0.0,3.8,38.0,5.8,'11111222,11111222,11111222' 
TCOON,ioos:station:TCOON:005:1,2017-09-01T18:00:00Z,27.6346,-97.2370,0.0,5.4,53.0,6.5,'11111222,11111222,11111222' 
TCOON,ioos:station:TCOON:005:1,2017-09-01T18:06:00Z,27.6346,-97.2370,0.0,4.7,50.0,6.0,'11111222,11111222,11111222' 
TCOON,ioos:station:TCOON:005:1,2017-09-01T18:12:00Z,27.6346,-97.2370,0.0,5.2,28.0,6.2,'11111222,11111222,11111222' 
TCOON,ioos:station:TCOON:005:1,2017-09-01T18:18:00Z,27.6346,-97.2370,0.0,5.2,28.0,6.2,'1111122,1111122,1111122' 
TCOON,ioos:station:TCOON:005:1,2017-09-01T18:24:00Z,27.6346,-97.2370,0.0,5.2,53.0,6.5,'11111222,11111222,11111222' 
TCOON,ioos:station:TCOON:005:1,2017-09-01T18:30:00Z,27.6346,-97.2370,0.0,5.0,38.0,6.0,'11111222,11111222,11111222' 
TCOON,ioos:station:TCOON:005:1,2017-09-01T18:36:00Z,27.6346,-97.2370,0.0,5.0,38.0,6.6,'11111222,11111222,11111222' 
TCOON,ioos:station:TCOON:005:1,2017-09-01T18:42:00Z,27.6346,-97.2370,0.0,4.9,48.0,6.1,'11111222,11111222,11111222' 
TCOON,ioos:station:TCOON:005:1,2017-09-01T18:48:00Z,27.6346,-97.2370,0.0,4.7,37.0,6.5,'11111222,11111222,11111222' 
TCOON,ioos:station:TCOON:005:1,2017-09-01T18:54:00Z,27.6346,-97.2370,0.0,5.5,41.0,7.0,'11111222,11111222,11111222' 
TCOON,ioos:station:TCOON:005:1,2017-09-01T19:00:00Z,27.6346,-97.2370,0.0,5.3,52.0,6.3,'11111222,11111222,11111222' 
TCOON,ioos:station:TCOON:005:1,2017-09-01T19:06:00Z,27.6346,-97.2370,0.0,5.7,59.0,7.2,'11111222,11111222,11111222' 
TCOON,ioos:station:TCOON:005:1,2017-09-01T19:12:00Z,27.6346,-97.2370,0.0,5.6,55.0,7.0,'11111222,11111222,11111222' 
TCOON,ioos:station:TCOON:005:1,2017-09-01T19:18:00Z,27.6346,-97.2370,0.0,5.6,55.0,7.0,'1111122,1111122,1111122' 
TCOON,ioos:station:TCOON:005:1,2017-09-01T19:24:00Z,27.6346,-97.2370,0.0,5.8,53.0,7.6,'11111222,11111222,11111222' 
TCOON,ioos:station:TCOON:005:1,2017-09-01T19:30:00Z,27.6346,-97.2370,0.0,5.2,66.0,6.9,'11111222,11111222,11111222' 
TCOON,ioos:station:TCOON:005:1,2017-09-01T19:36:00Z,27.6346,-97.2370,0.0,4.8,63.0,6.8,'11111222,11111222,11111222' 
TCOON,ioos:station:TCOON:005:1,2017-09-01T19:42:00Z,27.6346,-97.2370,0.0,4.6,58.0,7.8,'11111222,11111222,11111222' 
TCOON,ioos:station:TCOON:005:1,2017-09-01T19:48:00Z,27.6346,-97.2370,0.0,5.3,68.0,6.5,'11111222,11111222,11111222' 
TCOON,ioos:station:TCOON:005:1,2017-09-01T19:54:00Z,27.6346,-97.2370,0.0,6.1,49.0,7.9,'11111222,11111222,11111222' 
TCOON,ioos:station:TCOON:005:1,2017-09-01T20:00:00Z,27.6346,-97.2370,0.0,5.7,61.0,7.9,'11111222,11111222,11111222' 
TCOON,ioos:station:TCOON:005:1,2017-09-01T20:06:00Z,27.6346,-97.2370,0.0,5.8,62.0,7.7,'11111222,11111222,11111222' 
TCOON,ioos:station:TCOON:005:1,2017-09-01T20:12:00Z,27.6346,-97.2370,0.0,5.7,56.0,8.1,'11111222,11111222,11111222' 
TCOON,ioos:station:TCOON:005:1,2017-09-01T20:18:00Z,27.6346,-97.2370,0.0,5.7,56.0,8.1,'1111122,1111122,1111122' 
TCOON,ioos:station:TCOON:005:1,2017-09-01T20:24:00Z,27.6346,-97.2370,0.0,5.9,58.0,7.5,'11111222,11111222,11111222' 
TCOON,ioos:station:TCOON:005:1,2017-09-01T20:30:00Z,27.6346,-97.2370,0.0,5.7,54.0,7.9,'11111222,11111222,11111222' 